Location: Dumpton Point
(51.3500°N, 1.4433°E)
Time: 05:40:11
(UTC+00:00)

Altair - Pass Details

Date: 30 September 2022
Orbit: 1501 x 1682 km, 47.2° (Epoch: 26 November)

Event Time Altitude Azimuth Distance (km) Brightness Sun altitude
Rises 07:49:29 0° 255° (WSW) 4,838 9.7 16.6°
Reaches altitude 10° 07:52:35 10° 253° (WSW) 3,874 9.3 17.0°
Maximum altitude 08:02:27 70° 173° (S) 1,760 8.4 18.4°
Drops below altitude 10° 08:12:32 10° 93° (E) 3,947 10.9 19.7°
Sets 08:15:43 0° 91° (E) 4,934 11.1 20.1°
